• In Austria
  • List of Countries
  • For 7 days
  • Water Temperature
  • Satellite Maps
  • Weather Map
  • News
  • Weather Widgets
  • user-avatar
    Login

    Hourly Weather Yulara

    Today, 25 February, Sunday

    Time Temperature Precipitation Wind Pressure Humidity
    00:00 +29°C° 0 mm 9 mps 716 mmHg 29%
    01:00 +28°C° 0 mm 9 mps 716 mmHg 32%
    02:00 +28°C° 0 mm 9 mps 716 mmHg 35%
    03:00 +27°C° 0 mm 9 mps 716 mmHg 40%
    04:00 +26°C° 0 mm 8 mps 716 mmHg 44%
    05:00 +24°C° 0 mm 8 mps 716 mmHg 48%
    06:00 +23°C° 0 mm 7 mps 716 mmHg 51%
    07:00 +24°C° 0 mm 7 mps 717 mmHg 49%
    08:00 +26°C° 0 mm 7 mps 717 mmHg 47%
    09:00 +27°C° 0 mm 7 mps 717 mmHg 45%
    10:00 +28°C° 0 mm 7 mps 717 mmHg 40%
    11:00 +30°C° 0 mm 6 mps 717 mmHg 35%
    12:00 +33°C° 0 mm 5 mps 716 mmHg 29%
    13:00 +34°C° 0 mm 5 mps 716 mmHg 27%
    14:00 +34°C° 0 mm 4 mps 715 mmHg 24%
    15:00 +35°C° 0 mm 3 mps 715 mmHg 22%
    16:00 +35°C° 0 mm 3 mps 715 mmHg 21%
    17:00 +35°C° 0 mm 3 mps 715 mmHg 21%
    18:00 +35°C° 0 mm 3 mps 715 mmHg 20%
    19:00 +34°C° 0 mm 4 mps 715 mmHg 21%
    20:00 +33°C° 0 mm 4 mps 715 mmHg 22%
    21:00 +32°C° 0 mm 5 mps 716 mmHg 23%
    22:00 +30°C° 0 mm 5 mps 716 mmHg 21%
    23:00 +29°C° 0 mm 6 mps 715 mmHg 20%

    Tomorrow, 26 February, Monday

    Time Temperature Precipitation Wind Pressure Humidity
    00:00 +28°C° 0 mm 7 mps 715 mmHg 18%
    01:00 +28°C° 0 mm 6 mps 715 mmHg 19%
    02:00 +27°C° 0 mm 6 mps 715 mmHg 20%
    03:00 +26°C° 0 mm 6 mps 715 mmHg 20%
    04:00 +26°C° 0 mm 5 mps 715 mmHg 22%
    05:00 +25°C° 0 mm 5 mps 715 mmHg 23%
    06:00 +23°C° 0 mm 4 mps 715 mmHg 25%
    07:00 +26°C° 0 mm 5 mps 716 mmHg 23%
    08:00 +27°C° 0 mm 6 mps 716 mmHg 21%
    09:00 +29°C° 0 mm 6 mps 716 mmHg 19%
    10:00 +32°C° 0 mm 5 mps 716 mmHg 18%
    11:00 +33°C° 0 mm 4 mps 716 mmHg 17%
    12:00 +35°C° 0 mm 3 mps 715 mmHg 16%
    13:00 +36°C° 0 mm 2 mps 715 mmHg 16%
    14:00 +35°C° 0 mm 1 mps 714 mmHg 15%
    15:00 +34°C° 0 mm 0 mps 714 mmHg 14%
    16:00 +36°C° 0 mm 1 mps 714 mmHg 14%
    17:00 +36°C° 0 mm 1 mps 713 mmHg 13%
    18:00 +37°C° 0 mm 1 mps 713 mmHg 13%
    19:00 +36°C° 0 mm 2 mps 714 mmHg 14%
    20:00 +35°C° 0 mm 3 mps 714 mmHg 15%
    21:00 +34°C° 0 mm 3 mps 715 mmHg 15%
    22:00 +33°C° 0 mm 4 mps 715 mmHg 15%
    23:00 +32°C° 0 mm 4 mps 715 mmHg 15%

    Day after tomorrow, 27 February, Tuesday

    Time Temperature Precipitation Wind Pressure Humidity
    00:00 +30°C° 0 mm 5 mps 714 mmHg 15%
    01:00 +30°C° 0 mm 5 mps 714 mmHg 16%
    02:00 +29°C° 0 mm 4 mps 714 mmHg 16%
    03:00 +28°C° 0 mm 4 mps 714 mmHg 16%
    04:00 +28°C° 0 mm 4 mps 714 mmHg 18%
    05:00 +27°C° 0 mm 4 mps 714 mmHg 19%
    06:00 +27°C° 0 mm 3 mps 714 mmHg 21%
    07:00 +29°C° 0 mm 4 mps 715 mmHg 19%
    08:00 +32°C° 0 mm 4 mps 715 mmHg 17%
    09:00 +33°C° 0 mm 5 mps 716 mmHg 15%
    10:00 +35°C° 0 mm 4 mps 716 mmHg 14%
    11:00 +37°C° 0 mm 3 mps 715 mmHg 13%
    12:00 +38°C° 0 mm 2 mps 715 mmHg 12%
    13:00 +39°C° 0 mm 3 mps 714 mmHg 12%
    14:00 +40°C° 0 mm 3 mps 714 mmHg 12%
    15:00 +42°C° 0 mm 3 mps 713 mmHg 12%
    16:00 +42°C° 0 mm 3 mps 713 mmHg 12%
    17:00 +42°C° 0 mm 4 mps 713 mmHg 12%
    18:00 +42°C° 0 mm 4 mps 713 mmHg 13%
    19:00 +41°C° 0 mm 4 mps 714 mmHg 14%
    20:00 +38°C° 0 mm 4 mps 714 mmHg 15%
    21:00 +37°C° 0 mm 3 mps 714 mmHg 17%
    22:00 +36°C° 0 mm 5 mps 715 mmHg 19%
    23:00 +35°C° 0 mm 7 mps 715 mmHg 20%

    28 February, Wednesday

    Time Temperature Precipitation Wind Pressure Humidity
    00:00 +35°C° 0 mm 8 mps 715 mmHg 22%
    01:00 +33°C° 0 mm 8 mps 715 mmHg 25%
    02:00 +32°C° 0 mm 9 mps 715 mmHg 28%
    03:00 +31°C° 0 mm 9 mps 714 mmHg 32%
    04:00 +29°C° 0 mm 8 mps 715 mmHg 34%
    05:00 +28°C° 0 mm 8 mps 715 mmHg 37%
    06:00 +27°C° 0 mm 8 mps 716 mmHg 40%
    07:00 +29°C° 0 mm 8 mps 716 mmHg 36%
    08:00 +31°C° 0 mm 8 mps 717 mmHg 33%
    09:00 +32°C° 0 mm 8 mps 717 mmHg 29%
    10:00 +34°C° 0 mm 8 mps 717 mmHg 24%
    11:00 +36°C° 0 mm 7 mps 717 mmHg 19%
    12:00 +40°C° 0 mm 7 mps 717 mmHg 14%
    13:00 +40°C° 0 mm 7 mps 716 mmHg 14%
    14:00 +41°C° 0 mm 7 mps 716 mmHg 14%
    15:00 +43°C° 0 mm 7 mps 715 mmHg 13%
    16:00 +41°C° 0 mm 7 mps 715 mmHg 14%
    17:00 +41°C° 0 mm 8 mps 715 mmHg 15%
    18:00 +40°C° 0 mm 8 mps 716 mmHg 15%
    19:00 +39°C° 0 mm 7 mps 716 mmHg 17%
    20:00 +36°C° 0 mm 7 mps 717 mmHg 18%
    21:00 +35°C° 0 mm 6 mps 717 mmHg 19%
    22:00 +34°C° 0 mm 7 mps 717 mmHg 20%
    23:00 +33°C° 0 mm 7 mps 717 mmHg 21%

    1 March, Thursday

    Time Temperature Precipitation Wind Pressure Humidity
    00:00 +33°C° 0 mm 7 mps 717 mmHg 22%
    01:00 +32°C° 0 mm 7 mps 717 mmHg 23%
    02:00 +30°C° 0 mm 7 mps 716 mmHg 23%
    03:00 +29°C° 0 mm 7 mps 716 mmHg 23%
    04:00 +29°C° 0 mm 7 mps 716 mmHg 24%
    05:00 +28°C° 0 mm 7 mps 716 mmHg 24%
    06:00 +27°C° 0 mm 6 mps 716 mmHg 25%
    07:00 +29°C° 0 mm 7 mps 717 mmHg 23%
    08:00 +31°C° 0 mm 8 mps 717 mmHg 20%
    09:00 +33°C° 0 mm 9 mps 717 mmHg 18%
    10:00 +35°C° 0 mm 9 mps 717 mmHg 17%
    11:00 +38°C° 0 mm 8 mps 717 mmHg 15%
    12:00 +40°C° 0 mm 8 mps 716 mmHg 14%
    13:00 +41°C° 0 mm 7 mps 715 mmHg 14%
    14:00 +41°C° 0 mm 6 mps 715 mmHg 13%
    15:00 +42°C° 0 mm 6 mps 714 mmHg 13%
    16:00 +42°C° 0 mm 6 mps 714 mmHg 14%
    17:00 +41°C° 0 mm 5 mps 714 mmHg 14%
    18:00 +41°C° 0 mm 5 mps 715 mmHg 15%
    19:00 +40°C° 0 mm 5 mps 715 mmHg 16%
    20:00 +39°C° 0 mm 5 mps 715 mmHg 17%
    21:00 +38°C° 0 mm 6 mps 716 mmHg 17%
    22:00 +38°C° 0 mm 6 mps 716 mmHg 18%
    23:00 +36°C° 0 mm 6 mps 715 mmHg 19%

    2 March, Friday

    Time Temperature Precipitation Wind Pressure Humidity
    00:00 +36°C° 0 mm 6 mps 715 mmHg 20%
    01:00 +35°C° 0 mm 6 mps 715 mmHg 20%
    02:00 +34°C° 0 mm 7 mps 715 mmHg 20%
    03:00 +33°C° 0 mm 7 mps 714 mmHg 21%
    04:00 +33°C° 0 mm 7 mps 715 mmHg 22%
    05:00 +32°C° 0 mm 7 mps 715 mmHg 23%
    06:00 +30°C° 0 mm 7 mps 715 mmHg 24%
    07:00 +32°C° 0 mm 8 mps 715 mmHg 23%
    08:00 +34°C° 0 mm 9 mps 716 mmHg 22%
    09:00 +36°C° 0 mm 10 mps 716 mmHg 21%
    10:00 +38°C° 0 mm 9 mps 715 mmHg 20%
    11:00 +39°C° 0 mm 8 mps 715 mmHg 20%
    12:00 +41°C° 0 mm 8 mps 714 mmHg 20%
    13:00 +41°C° 0 mm 7 mps 714 mmHg 19%
    14:00 +42°C° 0 mm 6 mps 713 mmHg 19%
    15:00 +43°C° 0 mm 5 mps 713 mmHg 18%
    16:00 +42°C° 0 mm 5 mps 713 mmHg 19%
    17:00 +42°C° 0 mm 5 mps 713 mmHg 20%
    18:00 +41°C° 0 mm 5 mps 713 mmHg 21%
    19:00 +41°C° 0 mm 5 mps 713 mmHg 23%
    20:00 +40°C° 0 mm 4 mps 713 mmHg 25%
    21:00 +38°C° 0 mm 4 mps 714 mmHg 27%
    22:00 +37°C° 0.4 mm 4 mps 713 mmHg 31%
    23:00 +36°C° 0.4 mm 4 mps 713 mmHg 36%
    Show more